Year,Month,Day,Hour,Minute,Value (Times are PST for temperature in C)
2021,06,25,00,00,12.30
2021,06,25,00,01,12.30
2021,06,25,00,02,12.20
2021,06,25,00,03,12.20
2021,06,25,00,04,12.20
2021,06,25,00,05,12.20
2021,06,25,00,06,12.20
2021,06,25,00,07,12.20
2021,06,25,00,08,12.20
2021,06,25,00,09,12.20
2021,06,25,00,10,12.20
2021,06,25,00,11,12.20
2021,06,25,00,12,12.20
2021,06,25,00,13,12.20
2021,06,25,00,14,12.20
2021,06,25,00,15,12.20
2021,06,25,00,16,12.20
2021,06,25,00,17,12.20
2021,06,25,00,18,12.20
2021,06,25,00,19,12.20
2021,06,25,00,20,12.20
2021,06,25,00,21,12.20
2021,06,25,00,22,12.20
2021,06,25,00,23,12.20
2021,06,25,00,24,12.10
2021,06,25,00,25,12.10
2021,06,25,00,26,12.10
2021,06,25,00,27,12.10
2021,06,25,00,28,12.10
2021,06,25,00,29,12.10
2021,06,25,00,30,12.10
2021,06,25,00,31,12.10
2021,06,25,00,32,12.00
2021,06,25,00,33,12.00
2021,06,25,00,34,12.00
2021,06,25,00,35,12.00
2021,06,25,00,36,12.00
2021,06,25,00,37,12.00
2021,06,25,00,38,12.00
2021,06,25,00,39,12.00
2021,06,25,00,40,12.00
2021,06,25,00,41,12.00
2021,06,25,00,42,12.00
2021,06,25,00,43,12.00
2021,06,25,00,44,12.00
2021,06,25,00,45,12.00
2021,06,25,00,46,12.00
2021,06,25,00,47,12.00
2021,06,25,00,48,12.00
2021,06,25,00,49,12.00
2021,06,25,00,50,12.00
2021,06,25,00,51,12.10
2021,06,25,00,52,12.10
2021,06,25,00,53,12.10
2021,06,25,00,54,12.10
2021,06,25,00,55,12.10
2021,06,25,00,56,12.10
2021,06,25,00,57,12.10
2021,06,25,00,58,12.10
2021,06,25,00,59,12.10
2021,06,25,01,00,12.20
2021,06,25,01,01,12.20
2021,06,25,01,02,12.20
2021,06,25,01,03,12.20
2021,06,25,01,04,12.20
2021,06,25,01,05,12.20
2021,06,25,01,06,12.20
2021,06,25,01,07,12.20
2021,06,25,01,08,12.20
2021,06,25,01,09,12.20
2021,06,25,01,10,12.20
2021,06,25,01,11,12.20
2021,06,25,01,12,12.20
2021,06,25,01,13,12.20
2021,06,25,01,14,12.20
2021,06,25,01,15,12.20
2021,06,25,01,16,12.20
2021,06,25,01,17,12.20
2021,06,25,01,18,12.20
2021,06,25,01,19,12.20
2021,06,25,01,20,12.20
2021,06,25,01,21,12.20
2021,06,25,01,22,12.20
2021,06,25,01,23,12.20
2021,06,25,01,24,12.20
2021,06,25,01,25,12.20
2021,06,25,01,26,12.20
2021,06,25,01,27,12.20
2021,06,25,01,28,12.20
2021,06,25,01,29,12.20
2021,06,25,01,30,12.20
2021,06,25,01,31,12.30
2021,06,25,01,32,12.30
2021,06,25,01,33,12.30
2021,06,25,01,34,12.30
2021,06,25,01,35,12.30
2021,06,25,01,36,12.30
2021,06,25,01,37,12.30
2021,06,25,01,38,12.40
2021,06,25,01,39,12.40
2021,06,25,01,40,12.40
2021,06,25,01,41,12.40
2021,06,25,01,42,12.40
2021,06,25,01,43,12.50
2021,06,25,01,44,12.50
2021,06,25,01,45,12.50
2021,06,25,01,46,12.50
2021,06,25,01,47,12.60
2021,06,25,01,48,12.60
2021,06,25,01,49,12.60
2021,06,25,01,50,12.60
2021,06,25,01,51,12.60
2021,06,25,01,52,12.60
2021,06,25,01,53,12.70
2021,06,25,01,54,12.70
2021,06,25,01,55,12.70
2021,06,25,01,56,12.80
2021,06,25,01,57,12.80
2021,06,25,01,58,12.90
2021,06,25,01,59,12.90
2021,06,25,02,00,12.90
2021,06,25,02,01,12.90
2021,06,25,02,02,12.90
2021,06,25,02,03,12.90
2021,06,25,02,04,12.80
2021,06,25,02,05,12.80
2021,06,25,02,06,12.80
2021,06,25,02,07,12.80
2021,06,25,02,08,12.80
2021,06,25,02,09,12.70
2021,06,25,02,10,12.70
2021,06,25,02,11,12.70
2021,06,25,02,12,12.70
2021,06,25,02,13,12.70
2021,06,25,02,14,12.70
2021,06,25,02,15,12.70
2021,06,25,02,16,12.70
2021,06,25,02,17,12.70
2021,06,25,02,18,12.70
2021,06,25,02,19,12.70
2021,06,25,02,20,12.70
2021,06,25,02,21,12.70
2021,06,25,02,22,12.70
2021,06,25,02,23,12.70
2021,06,25,02,24,12.70
2021,06,25,02,25,12.70
2021,06,25,02,26,12.70
2021,06,25,02,27,12.70
2021,06,25,02,28,12.80
2021,06,25,02,29,12.80
2021,06,25,02,30,12.80
2021,06,25,02,31,12.80
2021,06,25,02,32,12.80
2021,06,25,02,33,12.80
2021,06,25,02,34,12.80
2021,06,25,02,35,12.80
2021,06,25,02,36,12.90
2021,06,25,02,37,12.90
2021,06,25,02,38,12.90
2021,06,25,02,39,12.90
2021,06,25,02,40,13.00
2021,06,25,02,41,13.00
2021,06,25,02,42,13.00
2021,06,25,02,43,13.00
2021,06,25,02,44,13.00
2021,06,25,02,45,13.00
2021,06,25,02,46,13.10
2021,06,25,02,47,13.10
2021,06,25,02,48,13.10
2021,06,25,02,49,13.10
2021,06,25,02,50,13.10
2021,06,25,02,51,13.20
2021,06,25,02,52,13.20
2021,06,25,02,53,13.20
2021,06,25,02,54,13.20
2021,06,25,02,55,13.20
2021,06,25,02,56,13.30
2021,06,25,02,57,13.30
2021,06,25,02,58,13.30
2021,06,25,02,59,13.30
2021,06,25,03,00,13.40
2021,06,25,03,01,13.40
2021,06,25,03,02,13.40
2021,06,25,03,03,13.40
2021,06,25,03,04,13.50
2021,06,25,03,05,13.50
2021,06,25,03,06,13.50
2021,06,25,03,07,13.50
2021,06,25,03,08,13.50
2021,06,25,03,09,13.50
2021,06,25,03,10,13.60
2021,06,25,03,11,13.60
2021,06,25,03,12,13.60
2021,06,25,03,13,13.60
2021,06,25,03,14,13.60
2021,06,25,03,15,13.60
2021,06,25,03,16,13.60
2021,06,25,03,17,13.60
2021,06,25,03,18,13.60
2021,06,25,03,19,13.60
2021,06,25,03,20,13.60
2021,06,25,03,21,13.60
2021,06,25,03,22,13.60
2021,06,25,03,23,13.60
2021,06,25,03,24,13.60
2021,06,25,03,25,13.60
2021,06,25,03,26,13.60
2021,06,25,03,27,13.60
2021,06,25,03,28,13.60
2021,06,25,03,29,13.60
2021,06,25,03,30,13.60
2021,06,25,03,31,13.60
2021,06,25,03,32,13.60
2021,06,25,03,33,13.60
2021,06,25,03,34,13.60
2021,06,25,03,35,13.60
2021,06,25,03,36,13.50
2021,06,25,03,37,13.50
2021,06,25,03,38,13.50
2021,06,25,03,39,13.50
2021,06,25,03,40,13.50
2021,06,25,03,41,13.50
2021,06,25,03,42,13.50
2021,06,25,03,43,13.50
2021,06,25,03,44,13.50
2021,06,25,03,45,13.50
2021,06,25,03,46,13.50
2021,06,25,03,47,13.50
2021,06,25,03,48,13.50
2021,06,25,03,49,13.50
2021,06,25,03,50,13.50
2021,06,25,03,51,13.50
2021,06,25,03,52,13.50
2021,06,25,03,53,13.50
2021,06,25,03,54,13.50
2021,06,25,03,55,13.50
2021,06,25,03,56,13.50
2021,06,25,03,57,13.50
2021,06,25,03,58,13.60
2021,06,25,03,59,13.60
2021,06,25,04,00,13.60
2021,06,25,04,01,13.60
2021,06,25,04,02,13.60
2021,06,25,04,03,13.60
2021,06,25,04,04,13.60
2021,06,25,04,05,13.60
2021,06,25,04,06,13.60
2021,06,25,04,07,13.60
2021,06,25,04,08,13.60
2021,06,25,04,09,13.60
2021,06,25,04,10,13.50
2021,06,25,04,11,13.50
2021,06,25,04,12,13.50
2021,06,25,04,13,13.60
2021,06,25,04,14,13.60
2021,06,25,04,15,13.60
2021,06,25,04,16,13.60
2021,06,25,04,17,13.60
2021,06,25,04,18,13.60
2021,06,25,04,19,13.60
2021,06,25,04,20,13.60
2021,06,25,04,21,13.70
2021,06,25,04,22,13.70
2021,06,25,04,23,13.70
2021,06,25,04,24,13.70
2021,06,25,04,25,13.70
2021,06,25,04,26,13.70
2021,06,25,04,27,13.70
2021,06,25,04,28,13.70
2021,06,25,04,29,13.70
2021,06,25,04,30,13.80
2021,06,25,04,31,13.80
2021,06,25,04,32,13.80
2021,06,25,04,33,13.80
2021,06,25,04,34,13.90
2021,06,25,04,35,13.90
2021,06,25,04,36,13.90
2021,06,25,04,37,13.90
2021,06,25,04,38,13.80
2021,06,25,04,39,13.80
2021,06,25,04,40,13.80
2021,06,25,04,41,13.80
2021,06,25,04,42,13.80
2021,06,25,04,43,13.80
2021,06,25,04,44,13.90
2021,06,25,04,45,13.90
2021,06,25,04,46,13.90
2021,06,25,04,47,13.90
2021,06,25,04,48,13.90
2021,06,25,04,49,13.90
2021,06,25,04,50,13.90
2021,06,25,04,51,13.90
2021,06,25,04,52,13.90
2021,06,25,04,53,13.90
2021,06,25,04,54,13.90
2021,06,25,04,55,13.90
2021,06,25,04,56,13.90
2021,06,25,04,57,13.90
2021,06,25,04,58,13.90
2021,06,25,04,59,13.90
2021,06,25,05,00,13.90
2021,06,25,05,01,13.90
2021,06,25,05,02,13.90
2021,06,25,05,03,13.90
2021,06,25,05,04,13.90
2021,06,25,05,05,13.90
2021,06,25,05,06,13.90
2021,06,25,05,07,13.90
2021,06,25,05,08,13.90
2021,06,25,05,09,14.00
2021,06,25,05,10,14.00
2021,06,25,05,11,14.00
2021,06,25,05,12,14.10
2021,06,25,05,13,14.10
2021,06,25,05,14,14.10
2021,06,25,05,15,14.10
2021,06,25,05,16,14.10
2021,06,25,05,17,14.10
2021,06,25,05,18,14.10
2021,06,25,05,19,14.10
2021,06,25,05,20,14.10
2021,06,25,05,21,14.10
2021,06,25,05,22,14.00
2021,06,25,05,23,14.00
2021,06,25,05,24,14.00
2021,06,25,05,25,14.00
2021,06,25,05,26,14.00
2021,06,25,05,27,14.00
2021,06,25,05,28,14.00
2021,06,25,05,29,14.00
2021,06,25,05,30,14.00
2021,06,25,05,31,14.00
2021,06,25,05,32,14.00
2021,06,25,05,33,14.00
2021,06,25,05,34,14.00
2021,06,25,05,35,14.00
2021,06,25,05,36,13.90
2021,06,25,05,37,13.90
2021,06,25,05,38,13.90
2021,06,25,05,39,13.90
2021,06,25,05,40,13.90
2021,06,25,05,41,13.90
2021,06,25,05,42,13.80
2021,06,25,05,43,13.80
2021,06,25,05,44,13.80
2021,06,25,05,45,13.80
2021,06,25,05,46,13.80
2021,06,25,05,47,13.80
2021,06,25,05,48,13.70
2021,06,25,05,49,13.70
2021,06,25,05,50,13.70
2021,06,25,05,51,13.70
2021,06,25,05,52,13.70
2021,06,25,05,53,13.70
2021,06,25,05,54,13.70
2021,06,25,05,55,13.70
2021,06,25,05,56,13.70
2021,06,25,05,57,13.70
2021,06,25,05,58,13.70
2021,06,25,05,59,13.70
2021,06,25,06,00,13.70
2021,06,25,06,01,13.70
2021,06,25,06,02,13.70
2021,06,25,06,03,13.70
2021,06,25,06,04,13.70
2021,06,25,06,05,13.70
2021,06,25,06,06,13.70
2021,06,25,06,07,13.70
2021,06,25,06,08,13.70
2021,06,25,06,09,13.80
2021,06,25,06,10,13.80
2021,06,25,06,11,13.80
2021,06,25,06,12,13.80
2021,06,25,06,13,13.80
2021,06,25,06,14,13.90
2021,06,25,06,15,13.90
2021,06,25,06,16,13.90
2021,06,25,06,17,14.00
2021,06,25,06,18,14.00
2021,06,25,06,19,14.10
2021,06,25,06,20,14.20
2021,06,25,06,21,14.20
2021,06,25,06,22,14.20
2021,06,25,06,23,14.30
2021,06,25,06,24,14.40
2021,06,25,06,25,14.50
2021,06,25,06,26,14.60
2021,06,25,06,27,14.60
2021,06,25,06,28,14.70
2021,06,25,06,29,14.70
2021,06,25,06,30,14.80
2021,06,25,06,31,14.90
2021,06,25,06,32,14.90
2021,06,25,06,33,15.00
2021,06,25,06,34,15.00
2021,06,25,06,35,15.10
2021,06,25,06,36,15.10
2021,06,25,06,37,15.20
2021,06,25,06,38,15.20
2021,06,25,06,39,15.30
2021,06,25,06,40,15.30
2021,06,25,06,41,15.40
2021,06,25,06,42,15.50
2021,06,25,06,43,15.50
2021,06,25,06,44,15.60
2021,06,25,06,45,15.70
2021,06,25,06,46,15.80
2021,06,25,06,47,15.80
2021,06,25,06,48,15.90
2021,06,25,06,49,16.00
2021,06,25,06,50,16.00
2021,06,25,06,51,16.00
2021,06,25,06,52,16.10
2021,06,25,06,53,16.10
2021,06,25,06,54,16.10
2021,06,25,06,55,16.20
2021,06,25,06,56,16.20
2021,06,25,06,57,16.20
2021,06,25,06,58,16.30
2021,06,25,06,59,16.40
2021,06,25,07,00,16.40
2021,06,25,07,01,16.50
2021,06,25,07,02,16.60
2021,06,25,07,03,16.60
2021,06,25,07,04,16.70
2021,06,25,07,05,16.80
2021,06,25,07,06,16.80
2021,06,25,07,07,16.80
2021,06,25,07,08,16.90
2021,06,25,07,09,17.00
2021,06,25,07,10,17.10
2021,06,25,07,11,17.20
2021,06,25,07,12,17.20
2021,06,25,07,13,17.30
2021,06,25,07,14,17.30
2021,06,25,07,15,17.40
2021,06,25,07,16,17.50
2021,06,25,07,17,17.50
2021,06,25,07,18,17.60
2021,06,25,07,19,17.60
2021,06,25,07,20,17.60
2021,06,25,07,21,17.60
2021,06,25,07,22,17.70
2021,06,25,07,23,17.60
2021,06,25,07,24,17.70
2021,06,25,07,25,17.60
2021,06,25,07,26,17.70
2021,06,25,07,27,17.70
2021,06,25,07,28,17.70
2021,06,25,07,29,17.70
2021,06,25,07,30,17.70
2021,06,25,07,31,17.80
2021,06,25,07,32,17.80
2021,06,25,07,33,17.80
2021,06,25,07,34,17.90
2021,06,25,07,35,18.00
2021,06,25,07,36,18.10
2021,06,25,07,37,18.20
2021,06,25,07,38,18.30
2021,06,25,07,39,18.40
2021,06,25,07,40,18.50
2021,06,25,07,41,18.60
2021,06,25,07,42,18.70
2021,06,25,07,43,18.70
2021,06,25,07,44,18.80
2021,06,25,07,45,18.80
2021,06,25,07,46,18.80
2021,06,25,07,47,18.80
2021,06,25,07,48,18.80
2021,06,25,07,49,18.90
2021,06,25,07,50,18.90
2021,06,25,07,51,19.00
2021,06,25,07,52,19.00
2021,06,25,07,53,19.10
2021,06,25,07,54,19.10
2021,06,25,07,55,19.20
2021,06,25,07,56,19.30
2021,06,25,07,57,19.40
2021,06,25,07,58,19.50
2021,06,25,07,59,19.60
2021,06,25,08,00,19.70
2021,06,25,08,01,19.80
2021,06,25,08,02,19.90
2021,06,25,08,03,20.00
2021,06,25,08,04,20.00
2021,06,25,08,05,20.10
2021,06,25,08,06,20.20
2021,06,25,08,07,20.30
2021,06,25,08,08,20.40
2021,06,25,08,09,20.50
2021,06,25,08,10,20.60
2021,06,25,08,11,20.80
2021,06,25,08,12,20.90
2021,06,25,08,13,21.10
2021,06,25,08,14,21.30
2021,06,25,08,15,21.50
2021,06,25,08,16,21.70
2021,06,25,08,17,21.80
2021,06,25,08,18,22.00
2021,06,25,08,19,22.10
2021,06,25,08,20,22.30
2021,06,25,08,21,22.30
2021,06,25,08,22,22.50
2021,06,25,08,23,22.60
2021,06,25,08,24,22.60
2021,06,25,08,25,22.70
2021,06,25,08,26,22.80
2021,06,25,08,27,22.80
2021,06,25,08,28,22.80
2021,06,25,08,29,22.80
2021,06,25,08,30,22.80
2021,06,25,08,31,22.80
2021,06,25,08,32,22.80
2021,06,25,08,33,22.90
2021,06,25,08,34,22.90
2021,06,25,08,35,22.90
2021,06,25,08,36,23.00
2021,06,25,08,37,23.10
2021,06,25,08,38,23.10
2021,06,25,08,39,23.10
2021,06,25,08,40,23.10
2021,06,25,08,41,23.20
2021,06,25,08,42,23.20
2021,06,25,08,43,23.20
2021,06,25,08,44,23.30
2021,06,25,08,45,23.30
2021,06,25,08,46,23.30
2021,06,25,08,47,23.30
2021,06,25,08,48,23.30
2021,06,25,08,49,23.30
2021,06,25,08,50,23.30
2021,06,25,08,51,23.30
2021,06,25,08,52,23.40
2021,06,25,08,53,23.40
2021,06,25,08,54,23.50
2021,06,25,08,55,23.50
2021,06,25,08,56,23.50
2021,06,25,08,57,23.50
2021,06,25,08,58,23.60
2021,06,25,08,59,23.60
2021,06,25,09,00,23.70
2021,06,25,09,01,23.70
2021,06,25,09,02,23.80
2021,06,25,09,03,23.80
2021,06,25,09,04,23.80
2021,06,25,09,05,23.80
2021,06,25,09,06,23.80
2021,06,25,09,07,23.80
2021,06,25,09,08,23.80
2021,06,25,09,09,23.80
2021,06,25,09,10,23.90
2021,06,25,09,11,23.90
2021,06,25,09,12,23.90
2021,06,25,09,13,23.90
2021,06,25,09,14,23.80
2021,06,25,09,15,23.80
2021,06,25,09,16,23.80
2021,06,25,09,17,23.80
2021,06,25,09,18,23.80
2021,06,25,09,19,23.80
2021,06,25,09,20,23.80
2021,06,25,09,21,23.80
2021,06,25,09,22,23.80
2021,06,25,09,23,23.90
2021,06,25,09,24,23.90
2021,06,25,09,25,23.80
2021,06,25,09,26,23.90
2021,06,25,09,27,23.80
2021,06,25,09,28,23.70
2021,06,25,09,29,23.60
2021,06,25,09,30,23.50
2021,06,25,09,31,23.40
2021,06,25,09,32,23.40
2021,06,25,09,33,23.40
2021,06,25,09,34,23.40
2021,06,25,09,35,23.40
2021,06,25,09,36,23.40
2021,06,25,09,37,23.40
2021,06,25,09,38,23.40
2021,06,25,09,39,23.40
2021,06,25,09,40,23.40
2021,06,25,09,41,23.40
2021,06,25,09,42,23.40
2021,06,25,09,43,23.50
2021,06,25,09,44,23.60
2021,06,25,09,45,23.70
2021,06,25,09,46,23.90
2021,06,25,09,47,24.00
2021,06,25,09,48,24.10
2021,06,25,09,49,24.20
2021,06,25,09,50,24.20
2021,06,25,09,51,24.20
2021,06,25,09,52,24.30
2021,06,25,09,53,24.50
2021,06,25,09,54,24.60
2021,06,25,09,55,24.70
2021,06,25,09,56,24.80
2021,06,25,09,57,24.90
2021,06,25,09,58,25.00
2021,06,25,09,59,25.10
2021,06,25,10,00,25.20
2021,06,25,10,01,25.30
2021,06,25,10,02,25.40
2021,06,25,10,03,25.50
2021,06,25,10,04,25.60
2021,06,25,10,05,25.80
2021,06,25,10,06,25.90
2021,06,25,10,07,25.90
2021,06,25,10,08,25.90
2021,06,25,10,09,25.90
2021,06,25,10,10,25.90
2021,06,25,10,11,25.90
2021,06,25,10,12,25.70
2021,06,25,10,13,25.70
2021,06,25,10,14,25.60
2021,06,25,10,15,25.50
2021,06,25,10,16,25.50
2021,06,25,10,17,25.60
2021,06,25,10,18,25.60
2021,06,25,10,19,25.60
2021,06,25,10,20,25.70
2021,06,25,10,21,25.70
2021,06,25,10,22,25.80
2021,06,25,10,23,25.80
2021,06,25,10,24,25.90
2021,06,25,10,25,25.90
2021,06,25,10,26,25.90
2021,06,25,10,27,26.00
2021,06,25,10,28,26.10
2021,06,25,10,29,26.20
2021,06,25,10,30,26.30
2021,06,25,10,31,26.50
2021,06,25,10,32,26.60
2021,06,25,10,33,26.60
2021,06,25,10,34,26.60
2021,06,25,10,35,26.70
2021,06,25,10,36,26.80
2021,06,25,10,37,26.90
2021,06,25,10,38,26.90
2021,06,25,10,39,27.00
2021,06,25,10,40,27.00
2021,06,25,10,41,27.00
2021,06,25,10,42,27.00
2021,06,25,10,43,27.00
2021,06,25,10,44,27.10
2021,06,25,10,45,27.10
2021,06,25,10,46,27.10
2021,06,25,10,47,27.00
2021,06,25,10,48,27.00
2021,06,25,10,49,26.90
2021,06,25,10,50,27.00
2021,06,25,10,51,27.00
2021,06,25,10,52,27.00
2021,06,25,10,53,27.10
2021,06,25,10,54,27.10
2021,06,25,10,55,27.10
2021,06,25,10,56,27.00
2021,06,25,10,57,26.90
2021,06,25,10,58,26.80
2021,06,25,10,59,26.70
2021,06,25,11,00,26.60
2021,06,25,11,01,26.60
2021,06,25,11,02,26.60
2021,06,25,11,03,26.60
2021,06,25,11,04,26.60
2021,06,25,11,05,26.50
2021,06,25,11,06,26.50
2021,06,25,11,07,26.50
2021,06,25,11,08,26.50
2021,06,25,11,09,26.60
2021,06,25,11,10,26.70
2021,06,25,11,11,26.80
2021,06,25,11,12,26.80
2021,06,25,11,13,26.80
2021,06,25,11,14,26.80
2021,06,25,11,15,26.80
2021,06,25,11,16,26.80
2021,06,25,11,17,26.90
2021,06,25,11,18,26.90
2021,06,25,11,19,27.10
2021,06,25,11,20,27.10
2021,06,25,11,21,27.10
2021,06,25,11,22,27.10
2021,06,25,11,23,27.20
2021,06,25,11,24,27.30
2021,06,25,11,25,27.40
2021,06,25,11,26,27.50
2021,06,25,11,27,27.70
2021,06,25,11,28,27.80
2021,06,25,11,29,27.80
2021,06,25,11,30,27.60
2021,06,25,11,31,27.20
2021,06,25,11,32,27.00
2021,06,25,11,33,26.90
2021,06,25,11,34,26.80
2021,06,25,11,35,26.80
2021,06,25,11,36,26.80
2021,06,25,11,37,26.80
2021,06,25,11,38,26.90
2021,06,25,11,39,27.00
2021,06,25,11,40,27.10
2021,06,25,11,41,27.20
2021,06,25,11,42,27.30
2021,06,25,11,43,27.30
2021,06,25,11,44,27.10
2021,06,25,11,45,27.10
2021,06,25,11,46,27.20
2021,06,25,11,47,27.30
2021,06,25,11,48,27.40
2021,06,25,11,49,27.50
2021,06,25,11,50,27.50
2021,06,25,11,51,27.40
2021,06,25,11,52,27.20
2021,06,25,11,53,27.00
2021,06,25,11,54,26.90
2021,06,25,11,55,26.80
2021,06,25,11,56,26.80
2021,06,25,11,57,26.80
2021,06,25,11,58,26.80
2021,06,25,11,59,26.80
2021,06,25,12,00,26.80
2021,06,25,12,01,26.80
2021,06,25,12,02,26.90
2021,06,25,12,03,27.00
2021,06,25,12,04,27.20
2021,06,25,12,05,27.40
2021,06,25,12,06,27.40
2021,06,25,12,07,27.50
2021,06,25,12,08,27.60
2021,06,25,12,09,27.70
2021,06,25,12,10,27.70
2021,06,25,12,11,27.70
2021,06,25,12,12,27.70
2021,06,25,12,13,27.70
2021,06,25,12,14,27.80
2021,06,25,12,15,27.70
2021,06,25,12,16,27.50
2021,06,25,12,17,27.50
2021,06,25,12,18,27.60
2021,06,25,12,19,27.60
2021,06,25,12,20,27.70
2021,06,25,12,21,27.70
2021,06,25,12,22,27.70
2021,06,25,12,23,27.80
2021,06,25,12,24,27.80
2021,06,25,12,25,27.70
2021,06,25,12,26,27.50
2021,06,25,12,27,27.40
2021,06,25,12,28,27.30
2021,06,25,12,29,27.40
2021,06,25,12,30,27.50
2021,06,25,12,31,27.60
2021,06,25,12,32,27.70
2021,06,25,12,33,27.60
2021,06,25,12,34,27.60
2021,06,25,12,35,27.60
2021,06,25,12,36,27.60
2021,06,25,12,37,27.60
2021,06,25,12,38,27.70
2021,06,25,12,39,27.70
2021,06,25,12,40,27.70
2021,06,25,12,41,27.80
2021,06,25,12,42,27.80
2021,06,25,12,43,27.80
2021,06,25,12,44,28.00
2021,06,25,12,45,28.00
2021,06,25,12,46,28.00
2021,06,25,12,47,28.10
2021,06,25,12,48,28.20
2021,06,25,12,49,28.30
2021,06,25,12,50,28.40
2021,06,25,12,51,28.60
2021,06,25,12,52,28.70
2021,06,25,12,53,28.70
2021,06,25,12,54,28.60
2021,06,25,12,55,28.60
2021,06,25,12,56,28.60
2021,06,25,12,57,28.40
2021,06,25,12,58,28.30
2021,06,25,12,59,28.30
2021,06,25,13,00,28.40
2021,06,25,13,01,28.60
2021,06,25,13,02,28.80
2021,06,25,13,03,28.90
2021,06,25,13,04,29.00
2021,06,25,13,05,29.10
2021,06,25,13,06,29.00
2021,06,25,13,07,28.80
2021,06,25,13,08,28.60
2021,06,25,13,09,28.30
2021,06,25,13,10,28.20
2021,06,25,13,11,28.00
2021,06,25,13,12,27.90
2021,06,25,13,13,27.90
2021,06,25,13,14,27.90
2021,06,25,13,15,28.00
2021,06,25,13,16,28.20
2021,06,25,13,17,28.40
2021,06,25,13,18,28.60
2021,06,25,13,19,28.90
2021,06,25,13,20,29.00
2021,06,25,13,21,29.10
2021,06,25,13,22,29.10
2021,06,25,13,23,28.90
2021,06,25,13,24,28.80
2021,06,25,13,25,28.60
2021,06,25,13,26,28.60
2021,06,25,13,27,28.60
2021,06,25,13,28,28.80
2021,06,25,13,29,28.90
2021,06,25,13,30,29.10
2021,06,25,13,31,29.10
2021,06,25,13,32,29.20
2021,06,25,13,33,29.20
2021,06,25,13,34,29.20
2021,06,25,13,35,29.20
2021,06,25,13,36,29.20
2021,06,25,13,37,29.10
2021,06,25,13,38,29.00
2021,06,25,13,39,29.00
2021,06,25,13,40,28.90
2021,06,25,13,41,28.80
2021,06,25,13,42,28.80
2021,06,25,13,43,28.60
2021,06,25,13,44,28.50
2021,06,25,13,45,28.50
2021,06,25,13,46,28.70
2021,06,25,13,47,28.90
2021,06,25,13,48,29.10
2021,06,25,13,49,29.20
2021,06,25,13,50,29.30
2021,06,25,13,51,29.30
2021,06,25,13,52,29.40
2021,06,25,13,53,29.50
2021,06,25,13,54,29.70
2021,06,25,13,55,29.80
2021,06,25,13,56,29.80
2021,06,25,13,57,29.80
2021,06,25,13,58,29.70
2021,06,25,13,59,29.70
2021,06,25,14,00,29.50
2021,06,25,14,01,29.40
2021,06,25,14,02,29.40
2021,06,25,14,03,29.30
2021,06,25,14,04,29.40
2021,06,25,14,05,29.40
2021,06,25,14,06,29.40
2021,06,25,14,07,29.50
2021,06,25,14,08,29.60
2021,06,25,14,09,29.70
2021,06,25,14,10,29.80
2021,06,25,14,11,29.80
2021,06,25,14,12,29.70
2021,06,25,14,13,29.70
2021,06,25,14,14,29.60
2021,06,25,14,15,29.60
2021,06,25,14,16,29.60
2021,06,25,14,17,29.60
2021,06,25,14,18,29.70
2021,06,25,14,19,29.70
2021,06,25,14,20,29.70
2021,06,25,14,21,29.70
2021,06,25,14,22,29.60
2021,06,25,14,23,29.60
2021,06,25,14,24,29.60
2021,06,25,14,25,29.60
2021,06,25,14,26,29.60
2021,06,25,14,27,29.60
2021,06,25,14,28,29.70
2021,06,25,14,29,29.80
2021,06,25,14,30,29.80
2021,06,25,14,31,29.90
2021,06,25,14,32,30.00
2021,06,25,14,33,30.10
2021,06,25,14,34,30.20
2021,06,25,14,35,30.10
2021,06,25,14,36,30.00
2021,06,25,14,37,30.10
2021,06,25,14,38,30.00
2021,06,25,14,39,29.90
2021,06,25,14,40,29.80
2021,06,25,14,41,29.80
2021,06,25,14,42,29.80
2021,06,25,14,43,29.90
2021,06,25,14,44,29.90
2021,06,25,14,45,29.90
2021,06,25,14,46,30.00
2021,06,25,14,47,30.10
2021,06,25,14,48,30.10
2021,06,25,14,49,30.20
2021,06,25,14,50,30.30
2021,06,25,14,51,30.40
2021,06,25,14,52,30.50
2021,06,25,14,53,30.50
2021,06,25,14,54,30.60
2021,06,25,14,55,30.70
2021,06,25,14,56,30.70
2021,06,25,14,57,30.60
2021,06,25,14,58,30.60
2021,06,25,14,59,30.50
2021,06,25,15,00,30.40
2021,06,25,15,01,30.50
2021,06,25,15,02,30.50
2021,06,25,15,03,30.50
2021,06,25,15,04,30.50
2021,06,25,15,05,30.60
2021,06,25,15,06,30.60
2021,06,25,15,07,30.60
2021,06,25,15,08,30.60
2021,06,25,15,09,30.50
2021,06,25,15,10,30.50
2021,06,25,15,11,30.60
2021,06,25,15,12,30.80
2021,06,25,15,13,31.00
2021,06,25,15,14,31.20
2021,06,25,15,15,31.40
2021,06,25,15,16,31.50
2021,06,25,15,17,31.60
2021,06,25,15,18,31.50
2021,06,25,15,19,31.40
2021,06,25,15,20,31.50
2021,06,25,15,21,31.50
2021,06,25,15,22,31.50
2021,06,25,15,23,31.40
2021,06,25,15,24,31.40
2021,06,25,15,25,31.50
2021,06,25,15,26,31.50
2021,06,25,15,27,31.60
2021,06,25,15,28,31.60
2021,06,25,15,29,31.70
2021,06,25,15,30,31.80
2021,06,25,15,31,31.80
2021,06,25,15,32,31.80
2021,06,25,15,33,31.80
2021,06,25,15,34,31.80
2021,06,25,15,35,31.70
2021,06,25,15,36,31.70
2021,06,25,15,37,31.70
2021,06,25,15,38,31.50
2021,06,25,15,39,31.20
2021,06,25,15,40,31.10
2021,06,25,15,41,31.00
2021,06,25,15,42,31.00
2021,06,25,15,43,31.10
2021,06,25,15,44,31.20
2021,06,25,15,45,31.30
2021,06,25,15,46,31.50
2021,06,25,15,47,31.60
2021,06,25,15,48,31.80
2021,06,25,15,49,31.90
2021,06,25,15,50,32.00
2021,06,25,15,51,32.00
2021,06,25,15,52,31.90
2021,06,25,15,53,31.80
2021,06,25,15,54,31.80
2021,06,25,15,55,31.70
2021,06,25,15,56,31.50
2021,06,25,15,57,31.40
2021,06,25,15,58,31.30
2021,06,25,15,59,31.30
2021,06,25,16,00,31.50
2021,06,25,16,01,31.70
2021,06,25,16,02,31.80
2021,06,25,16,03,31.90
2021,06,25,16,04,32.00
2021,06,25,16,05,32.10
2021,06,25,16,06,32.20
2021,06,25,16,07,32.20
2021,06,25,16,08,32.30
2021,06,25,16,09,32.30
2021,06,25,16,10,32.40
2021,06,25,16,11,32.40
2021,06,25,16,12,32.50
2021,06,25,16,13,32.50
2021,06,25,16,14,32.50
2021,06,25,16,15,32.40
2021,06,25,16,16,32.40
2021,06,25,16,17,32.40
2021,06,25,16,18,32.40
2021,06,25,16,19,32.50
2021,06,25,16,20,32.50
2021,06,25,16,21,32.50
2021,06,25,16,22,32.40
2021,06,25,16,23,32.40
2021,06,25,16,24,32.30
2021,06,25,16,25,32.10
2021,06,25,16,26,31.90
2021,06,25,16,27,31.70
2021,06,25,16,28,31.70
2021,06,25,16,29,31.60
2021,06,25,16,30,31.60
2021,06,25,16,31,31.70
2021,06,25,16,32,31.80
2021,06,25,16,33,31.80
2021,06,25,16,34,31.80
2021,06,25,16,35,31.80
2021,06,25,16,36,31.80
2021,06,25,16,37,31.80
2021,06,25,16,38,31.70
2021,06,25,16,39,31.80
2021,06,25,16,40,31.80
2021,06,25,16,41,31.90
2021,06,25,16,42,32.00
2021,06,25,16,43,31.90
2021,06,25,16,44,31.70
2021,06,25,16,45,31.60
2021,06,25,16,46,31.40
2021,06,25,16,47,31.40
2021,06,25,16,48,31.40
2021,06,25,16,49,31.40
2021,06,25,16,50,31.40
2021,06,25,16,51,31.40
2021,06,25,16,52,31.40
2021,06,25,16,53,31.40
2021,06,25,16,54,31.50
2021,06,25,16,55,31.60
2021,06,25,16,56,31.70
2021,06,25,16,57,31.80
2021,06,25,16,58,31.90
2021,06,25,16,59,32.00
2021,06,25,17,00,32.10
2021,06,25,17,01,32.10
2021,06,25,17,02,32.20
2021,06,25,17,03,32.20
2021,06,25,17,04,32.20
2021,06,25,17,05,32.30
2021,06,25,17,06,32.30
2021,06,25,17,07,32.40
2021,06,25,17,08,32.40
2021,06,25,17,09,32.50
2021,06,25,17,10,32.40
2021,06,25,17,11,32.40
2021,06,25,17,12,32.40
2021,06,25,17,13,32.40
2021,06,25,17,14,32.40
2021,06,25,17,15,32.40
2021,06,25,17,16,32.30
2021,06,25,17,17,32.30
2021,06,25,17,18,32.20
2021,06,25,17,19,32.20